Regional Weather Roundup
Issued by NWS

Home | Current Version | Previous Version | Text Only | Print | Product List | Glossary Off
Versions: 1 2 3 4 5 6 7 8 9 10 11 12 13 14 15 16 17 18 19 20 21 22 23 24 25 26 27 28 29 30 31 32 33 34 35 36 37 38 39 40 41 42 43 44 45 46 47 48 49 50

000
ASUS43 KDMX 252306
RWRIA

WEATHER ROUNDUP FOR IOWA
NATIONAL WEATHER SERVICE DES MOINES IA
600 PM CDT SUN JUN 25 2017

NOTE: "FAIR" INDICATES FEW OR NO CLOUDS BELOW 12,000 FEET WITH NO
SIGNIFICANT WEATHER AND/OR OBSTRUCTIONS TO VISIBILITY.

* - THESE STATIONS ARE NOT NWS STATIONS...THUS NOT UNDER NWS
QUALITY CONTROL.  THEY ALSO DO NOT REPORT WEATHER SUCH
AS PRECIPITATION OR FOG.

IAZ001>003-012>014-020>022-031>034-043>046-260000-
   NORTHWEST IOWA

CITY           SKY/WX    TMP DP  RH WIND       PRES   REMARKS
CARROLL *      SUNNY     73  41  31 N14G21    30.21S
CHEROKEE *     MOSUNNY   71  42  34 NW8       30.21F
DENISON *      SUNNY     73  41  31 NW10      30.23F
LE MARS *      SUNNY     72  41  33 N10G18    30.22F
ORANGE CITY *  MOSUNNY   72  43  35 N10G17    30.22S
SHELDON *      MOSUNNY   72  41  33 MISG      30.20S
SIOUX CITY     SUNNY     76  40  27 NW8G17    30.22F
SPENCER        MOSUNNY   71  40  32 NW10G25   30.21S
STORM LAKE *   SUNNY     72  39  30 NW15      30.21F
$$

IAZ055>058-069>071-079>083-090>094-260000-
   SOUTHWEST IOWA

CITY           SKY/WX    TMP DP  RH WIND       PRES   REMARKS
ATLANTIC *     SUNNY     72  41  33 NW10      30.23S
AUDUBON *      SUNNY     73  39  29 W8        30.23F
CLARINDA *     SUNNY     73  45  35 NW7G14    30.25F
COUNCIL BLFS * SUNNY     73  41  31 N8G14     30.23F
CRESTON *      SUNNY     72  43  35 NW12G21   30.24F
HARLAN  *      SUNNY     72  41  33 NW8       30.26F
LAMONI         SUNNY     72  45  37 NW10      30.23F
RED OAK *      SUNNY     73  45  35 W8        30.23F
SHENANDOAH *   SUNNY     73  45  35 NW7       30.24F
$$

IAZ047>049-059>061-072>074-084-260000-
   CENTRAL IOWA

CITY           SKY/WX    TMP DP  RH WIND       PRES   REMARKS
AMES           SUNNY     73  42  32 N15       30.19F
ANKENY *       MOSUNNY   73  43  33 W13G21    30.20F
BOONE *        SUNNY     72  41  33 NW15G21   30.18F
CHARITON *     SUNNY     73  43  33 NW12G26   30.21S
DES MOINES     MOSUNNY   74  42  31 NW15G22   30.20S
GRINNELL*      PTSUNNY   71  41  34 NW12G18   30.20S
KNOXVILLE *    MOSUNNY   72  43  35 NW14      30.19S
MARSHALLTOWN   MOSUNNY   71  43  36 NW16      30.17F
NEWTON *       MOSUNNY   72  41  33 NW13G18   30.19F
PELLA *        MOSUNNY   73  42  32 W10G17    30.21S
PERRY *          N/A     73  39  29 N9        30.20F
$$

IAZ004>006-015-016-023>025-035-036-260000-
   NORTH CENTRAL IOWA

CITY           SKY/WX    TMP DP  RH WIND       PRES   REMARKS
ALGONA *       MOSUNNY   70  39  32 N17       30.20S
CLARION *        N/A     70  39  32 NW20      30.18F
ESTHERVILLE    MOSUNNY   68  41  37 NW21G28   30.20F
FORT DODGE *   SUNNY     72  43  35 NW12G17   30.20F
MASON CITY     MOSUNNY   68  38  33 NW18G26   30.18F
FOREST CITY *    N/A     70  27  19 NW14G21   30.18S
WEBSTER CITY * MOSUNNY   72  41  33 NW13G20   30.17S
IOWA FALLS *     N/A     71  40  32 NW16      30.19S
$$

IAZ007>011-017>019-026>030-037>042-050>054-066-260000-
   NORTHEAST IOWA

CITY           SKY/WX    TMP DP  RH WIND       PRES   REMARKS
CEDAR RAPIDS   MOSUNNY   69  48  47 NW15G23   30.15F
CHARLES CITY * MOSUNNY   66  41  39 NW15      30.16S
CLINTON *      CLOUDY    66  50  56 NW13      30.15F
DECORAH *      SUNNY     64  46  52 NW8G20    30.13S
DUBUQUE        MOSUNNY   65  49  56 NW15      30.15F
MONTICELLO *   SUNNY     68  50  52 W15       30.14F
OELWEIN *      PTSUNNY   68  45  42 NW15G22   30.16S
WATERLOO       SUNNY     70  41  34 NW15G23   30.15S
$$

IAZ064-065-067-068-078-260000-
   EAST CENTRAL IOWA

CITY           SKY/WX    TMP DP  RH WIND       PRES   REMARKS
DAVENPORT      PTSUNNY   68  48  48 NW17      30.16S
IOWA CITY      PTSUNNY   73  46  38 W15G21    30.17F
MT. PLEASANT * MOSUNNY   71  41  33 NW8G18    30.18S
MUSCATINE *    MOSUNNY   72  45  37 NW13      30.16S
QUAD CITIES    MOSUNNY   70  48  45 NW12      30.15S
$$

IAZ062-063-075>077-085>089-095>099-260000-
   SOUTHEAST IOWA

CITY           SKY/WX    TMP DP  RH WIND       PRES   REMARKS
BURLINGTON     MOSUNNY   70  44  39 NW8       30.17S
FAIRFIELD *    MOSUNNY   73  39  29 NW14G23   30.18S
FORT MADISON * PTSUNNY   73  46  38 W12       30.19S
KEOKUK *       SUNNY     73  45  35 NW12      30.18S
OSKALOOSA *      N/A     72  42  34 W15       30.19F
CENTERVILLE *    N/A     73  45  35 W14       30.22F
OTTUMWA        MOSUNNY   73  43  33 W13       30.19F
WASHINGTON *   MOSUNNY   73  43  33 NW16G23   30.18S
$$

ABBREVIATIONS USED IN REMARKS
   TC - TEMPERATURES IN CELSIUS
  WCI - WIND CHILL INDEX
   HX - HEAT INDEX
  VSB - VISIBILITY
$$





USA.gov is the U.S. government's official web portal to all federal, state and local government web resources and services.